When you browse on this site, cookies collect data to enhance your experience and personalize the content and advertising you see.
Visit our Privacy Policy to learn more. By continuing to use the site, you agree to this use of cookies and data.
  • In Romania
  • List of Countries
  • For 7 days
  • Water Temperature
  • Satellite Maps
  • Weather Map
  • Weather Widgets
  • user-avatar
    Login

    Hourly Weather Vyglyadovka

    Today, 19 July, Friday

    Time Temperature Precipitation Wind Pressure Humidity
    00:00 +13°C° 0 mm 3 mps 739 mmHg 92%
    01:00 +12°C° 0 mm 3 mps 740 mmHg 93%
    02:00 +12°C° 0 mm 3 mps 740 mmHg 94%
    03:00 +12°C° 0 mm 3 mps 740 mmHg 96%
    04:00 +12°C° 0 mm 4 mps 740 mmHg 95%
    05:00 +13°C° 0 mm 4 mps 740 mmHg 95%
    06:00 +13°C° 0 mm 5 mps 740 mmHg 94%
    07:00 +14°C° 0.1 mm 5 mps 740 mmHg 91%
    08:00 +15°C° 0.1 mm 6 mps 740 mmHg 88%
    09:00 +16°C° 0.1 mm 6 mps 740 mmHg 85%
    10:00 +16°C° 0.3 mm 7 mps 740 mmHg 84%
    11:00 +16°C° 0.3 mm 7 mps 740 mmHg 84%
    12:00 +17°C° 0.3 mm 7 mps 740 mmHg 83%
    13:00 +18°C° 0.2 mm 7 mps 740 mmHg 81%
    14:00 +18°C° 0.2 mm 7 mps 740 mmHg 79%
    15:00 +20°C° 0.2 mm 7 mps 741 mmHg 76%
    16:00 +20°C° 0.2 mm 7 mps 741 mmHg 77%
    17:00 +20°C° 0.2 mm 6 mps 741 mmHg 78%
    18:00 +20°C° 0.2 mm 6 mps 741 mmHg 79%
    19:00 +19°C° 0 mm 5 mps 741 mmHg 83%
    20:00 +17°C° 0 mm 5 mps 742 mmHg 87%
    21:00 +15°C° 0 mm 4 mps 742 mmHg 91%
    22:00 +15°C° 0 mm 4 mps 742 mmHg 90%
    23:00 +14°C° 0 mm 4 mps 742 mmHg 89%

    Tomorrow, 20 July, Saturday

    Time Temperature Precipitation Wind Pressure Humidity
    00:00 +14°C° 0 mm 4 mps 742 mmHg 88%
    01:00 +14°C° 0 mm 5 mps 743 mmHg 89%
    02:00 +13°C° 0 mm 5 mps 743 mmHg 90%
    03:00 +13°C° 0 mm 5 mps 743 mmHg 91%
    04:00 +13°C° 0 mm 5 mps 743 mmHg 89%
    05:00 +14°C° 0 mm 5 mps 743 mmHg 87%
    06:00 +14°C° 0 mm 5 mps 744 mmHg 85%
    07:00 +15°C° 0 mm 5 mps 744 mmHg 81%
    08:00 +16°C° 0 mm 6 mps 744 mmHg 77%
    09:00 +19°C° 0 mm 6 mps 744 mmHg 73%
    10:00 +20°C° 0.1 mm 7 mps 744 mmHg 70%
    11:00 +21°C° 0.1 mm 7 mps 745 mmHg 68%
    12:00 +22°C° 0.1 mm 7 mps 745 mmHg 65%
    13:00 +22°C° 0.2 mm 7 mps 745 mmHg 64%
    14:00 +23°C° 0.2 mm 7 mps 745 mmHg 63%
    15:00 +23°C° 0.2 mm 7 mps 745 mmHg 62%
    16:00 +22°C° 0.1 mm 6 mps 745 mmHg 66%
    17:00 +22°C° 0.1 mm 6 mps 745 mmHg 70%
    18:00 +21°C° 0.1 mm 5 mps 745 mmHg 73%
    19:00 +20°C° 0.1 mm 4 mps 745 mmHg 79%
    20:00 +19°C° 0.1 mm 4 mps 746 mmHg 84%
    21:00 +17°C° 0.1 mm 4 mps 746 mmHg 89%
    22:00 +17°C° 0 mm 4 mps 746 mmHg 91%
    23:00 +15°C° 0 mm 4 mps 746 mmHg 92%

    Day after tomorrow, 21 July, Sunday

    Time Temperature Precipitation Wind Pressure Humidity
    00:00 +15°C° 0 mm 4 mps 746 mmHg 94%
    01:00 +15°C° 0 mm 4 mps 746 mmHg 94%
    02:00 +14°C° 0 mm 4 mps 746 mmHg 95%
    03:00 +14°C° 0 mm 4 mps 746 mmHg 95%
    04:00 +14°C° 0 mm 4 mps 746 mmHg 94%
    05:00 +14°C° 0 mm 4 mps 747 mmHg 93%
    06:00 +15°C° 0 mm 4 mps 747 mmHg 91%
    07:00 +17°C° 0 mm 4 mps 747 mmHg 86%
    08:00 +19°C° 0 mm 4 mps 747 mmHg 80%
    09:00 +20°C° 0 mm 5 mps 747 mmHg 75%
    10:00 +21°C° 0 mm 5 mps 747 mmHg 71%
    11:00 +22°C° 0 mm 5 mps 747 mmHg 67%
    12:00 +23°C° 0 mm 5 mps 747 mmHg 64%
    13:00 +23°C° 0.1 mm 5 mps 746 mmHg 64%
    14:00 +25°C° 0.1 mm 5 mps 746 mmHg 64%
    15:00 +25°C° 0.1 mm 5 mps 746 mmHg 64%
    16:00 +25°C° 0.3 mm 5 mps 746 mmHg 67%
    17:00 +23°C° 0.3 mm 4 mps 746 mmHg 69%
    18:00 +23°C° 0.3 mm 4 mps 746 mmHg 72%
    19:00 +21°C° 0 mm 3 mps 746 mmHg 77%
    20:00 +20°C° 0 mm 3 mps 746 mmHg 81%
    21:00 +18°C° 0 mm 3 mps 746 mmHg 86%
    22:00 +17°C° 0 mm 2 mps 746 mmHg 87%
    23:00 +17°C° 0 mm 2 mps 746 mmHg 88%

    22 July, Monday

    Time Temperature Precipitation Wind Pressure Humidity
    00:00 +16°C° 0 mm 2 mps 746 mmHg 89%
    01:00 +16°C° 0 mm 2 mps 746 mmHg 90%
    02:00 +15°C° 0 mm 2 mps 746 mmHg 91%
    03:00 +15°C° 0 mm 2 mps 746 mmHg 92%
    04:00 +15°C° 0 mm 2 mps 746 mmHg 91%
    05:00 +16°C° 0 mm 2 mps 746 mmHg 91%
    06:00 +16°C° 0 mm 2 mps 746 mmHg 90%
    07:00 +17°C° 0 mm 2 mps 746 mmHg 85%
    08:00 +19°C° 0 mm 2 mps 746 mmHg 79%
    09:00 +21°C° 0 mm 2 mps 746 mmHg 74%
    10:00 +23°C° 0 mm 2 mps 746 mmHg 69%
    11:00 +24°C° 0 mm 2 mps 746 mmHg 64%
    12:00 +25°C° 0 mm 2 mps 746 mmHg 59%
    13:00 +25°C° 0 mm 2 mps 745 mmHg 57%
    14:00 +26°C° 0 mm 2 mps 745 mmHg 55%
    15:00 +26°C° 0 mm 2 mps 745 mmHg 54%
    16:00 +26°C° 0 mm 1 mps 745 mmHg 56%
    17:00 +26°C° 0 mm 1 mps 744 mmHg 58%
    18:00 +25°C° 0 mm 1 mps 744 mmHg 60%
    19:00 +24°C° 0 mm 1 mps 744 mmHg 64%
    20:00 +22°C° 0 mm 1 mps 744 mmHg 69%
    21:00 +20°C° 0 mm 1 mps 744 mmHg 73%
    22:00 +19°C° 0 mm 2 mps 744 mmHg 75%
    23:00 +18°C° 0 mm 2 mps 743 mmHg 78%

    23 July, Tuesday

    Time Temperature Precipitation Wind Pressure Humidity
    00:00 +18°C° 0 mm 2 mps 743 mmHg 80%
    01:00 +17°C° 0 mm 2 mps 743 mmHg 81%
    02:00 +17°C° 0 mm 2 mps 743 mmHg 83%
    03:00 +16°C° 0 mm 2 mps 742 mmHg 84%
    04:00 +16°C° 0 mm 2 mps 742 mmHg 84%
    05:00 +16°C° 0 mm 2 mps 742 mmHg 85%
    06:00 +16°C° 0 mm 2 mps 742 mmHg 86%
    07:00 +18°C° 0 mm 3 mps 742 mmHg 82%
    08:00 +19°C° 0 mm 3 mps 742 mmHg 78%
    09:00 +20°C° 0 mm 4 mps 742 mmHg 74%
    10:00 +21°C° 0 mm 4 mps 742 mmHg 70%
    11:00 +22°C° 0 mm 4 mps 742 mmHg 65%
    12:00 +23°C° 0 mm 4 mps 742 mmHg 61%
    13:00 +23°C° 0 mm 4 mps 742 mmHg 59%
    14:00 +25°C° 0 mm 4 mps 742 mmHg 58%
    15:00 +25°C° 0 mm 4 mps 742 mmHg 57%
    16:00 +25°C° 0 mm 4 mps 742 mmHg 60%
    17:00 +23°C° 0 mm 4 mps 742 mmHg 62%
    18:00 +24°C° 0 mm 3 mps 742 mmHg 65%
    19:00 +21°C° 0 mm 3 mps 742 mmHg 70%
    20:00 +20°C° 0 mm 3 mps 742 mmHg 75%
    21:00 +18°C° 0 mm 3 mps 742 mmHg 80%
    22:00 +17°C° 0 mm 3 mps 742 mmHg 81%
    23:00 +17°C° 0 mm 3 mps 742 mmHg 82%

    24 July, Wednesday

    Time Temperature Precipitation Wind Pressure Humidity
    00:00 +16°C° 0 mm 3 mps 742 mmHg 83%
    01:00 +16°C° 0 mm 3 mps 742 mmHg 85%
    02:00 +14°C° 0 mm 3 mps 742 mmHg 88%
    03:00 +14°C° 0 mm 3 mps 742 mmHg 91%
    04:00 +14°C° 0 mm 3 mps 742 mmHg 91%
    05:00 +14°C° 0 mm 3 mps 742 mmHg 90%
    06:00 +14°C° 0 mm 3 mps 742 mmHg 90%
    07:00 +17°C° 0 mm 3 mps 742 mmHg 85%
    08:00 +18°C° 0 mm 3 mps 742 mmHg 79%
    09:00 +20°C° 0 mm 4 mps 742 mmHg 74%
    10:00 +21°C° 0 mm 4 mps 742 mmHg 70%
    11:00 +22°C° 0 mm 4 mps 742 mmHg 66%
    12:00 +23°C° 0 mm 4 mps 742 mmHg 62%
    13:00 +23°C° 0 mm 4 mps 742 mmHg 62%
    14:00 +23°C° 0 mm 4 mps 742 mmHg 62%
    15:00 +25°C° 0 mm 4 mps 742 mmHg 61%
    16:00 +23°C° 0.1 mm 4 mps 742 mmHg 64%
    17:00 +23°C° 0.1 mm 4 mps 742 mmHg 67%
    18:00 +22°C° 0.1 mm 4 mps 742 mmHg 70%
    19:00 +21°C° 0 mm 4 mps 742 mmHg 73%
    20:00 +19°C° 0 mm 4 mps 742 mmHg 76%
    21:00 +18°C° 0 mm 3 mps 743 mmHg 80%
    22:00 +17°C° 0 mm 3 mps 743 mmHg 80%
    23:00 +17°C° 0 mm 3 mps 743 mmHg 80%
    Show more